Regional Weather Roundup
Issued by NWS

Home | Current Version | Previous Version | Text Only | Print | Product List | Glossary Off
Versions: 1 2 3 4 5 6 7 8 9 10 11 12 13 14 15 16 17 18 19 20 21 22 23 24 25 26 27 28 29 30 31 32 33 34 35 36 37 38 39 40 41 42 43 44 45 46 47 48 49 50

000
ASUS43 KMPX 310001
RWRMN
WEATHER ROUNDUP FOR MINNESOTA
NATIONAL WEATHER SERVICE TWIN CITIES/CHANHASSEN MN
700 PM CDT SUN AUG 30 2015


NOTE: "FAIR" INDICATES FEW OR NO CLOUDS BELOW 12,000 FEET WITH NO
SIGNIFICANT WEATHER AND/OR OBSTRUCTIONS TO VISIBILITY. N/A MEANS
CURRENT SKY AND/OR WEATHER CONDITIONS ARE NOT AVAILABLE.

MNZ060>063-068>070-310100-
   Twin Cities Metro

CITY           SKY/WX    TMP DP  RH WIND       PRES   REMARKS
TWIN CITIES    PTCLDY    77  66  68 S13       29.91F
6HR MIN TEMP:  74; 6HR MAX TEMP:  81;

ST PAUL        CLEAR     76  67  73 S9        29.92S
CRYSTAL        CLEAR     78  65  63 S13       29.89F
LAKEVILLE      CLEAR     73  66  78 S5        29.93S
EDEN PRAIRIE   CLEAR     76  67  73 S13       29.91F
6HR MIN TEMP:  75; 6HR MAX TEMP:  80;

SOUTH ST PAUL  CLEAR     76  65  67 S8        29.92S
LAKE ELMO      FAIR      73  66  78 S10       29.93F
$$
MNZ001>005-007-008-013>017-022>024-027-028-310100-
   Northwest Minnesota

CITY           SKY/WX    TMP DP  RH WIND       PRES   REMARKS
BEMIDJI        PTCLDY    79  69  71 S9        29.79F
HALLOCK        PTSUNNY   84  70  61 S18       29.64F
ROSEAU         MOSUNNY   82  73  74 SE7       29.70F
WARROAD        MOSUNNY   81  73  78 S7        29.71F
THIEF RVR FALL MOSUNNY  N/A N/A N/A S9        29.71F
CROOKSTON      MOSUNNY   82  68  61 S16G22    29.70F
FOSSTON        SUNNY     79  64  61 SE9       29.76F
DETROIT LAKES  MOSUNNY   77  68  73 S14       29.81S
MOORHEAD       MOSUNNY   82  68  61 SE13      29.74S
PARK RAPIDS    CLEAR     79  67  66 S15       29.82F
MAHNOMEN       FAIR      78  68  71 S8        29.76F
$$
MNZ006-009>011-018-025>026-310100-
   North Central Minnesota

CITY           SKY/WX    TMP DP  RH WIND       PRES   REMARKS
BAUDETTE       PTCLDY    79  70  74 S8        29.74F
FLAG ISLAND    CLEAR     73  66  78 S14       29.71S
INTL FALLS     MOCLDY    79  69  71 VRB6      29.78S
6HR MIN TEMP:  76; 6HR MAX TEMP:  83;

WASKISH        PTCLDY    79  70  73 CALM      29.77S
BIG FORK       PTCLDY    77  70  78 S6        29.82S
LONGVILLE      PTCLDY    75  68  78 S7        29.84S
GRAND RAPIDS     N/A     73  64  73 SE6       29.85S
CRANE LAKE     PTCLDY    75  72  88 S1        29.82F
COOK           PTCLDY    75  70  83 CALM      29.84S
WALKER         FAIR      78  68  71 S6        29.81F
$$
MNZ012-019>021-037-310100-
   Northeast Minnesota

CITY           SKY/WX    TMP DP  RH WIND       PRES   REMARKS
DULUTH         CLEAR     76  65  68 SW10      29.88S
6HR MIN TEMP:  76; 6HR MAX TEMP:  81;

ELY            PTCLDY    79  66  65 S5        29.85S
HIBBING        CLEAR     78  68  71 S5        29.85S
EVELETH        PTCLDY    77  68  73 S6        29.87S
DULUTH HARBOR  CLEAR     79  66  65 SW14      29.85S
TWO HARBORS    PTCLDY    79  70  73 SW6       29.85R
SILVER BAY     PTCLDY    75  68  78 S3        29.85R
GRAND MARAIS     N/A     57  54  89 SW6       29.83S
G MARAIS ARPRT MOCLDY    70  63  78 CALM      29.89S
$$
MNZ029>031-032-039>041-046>048-054>057-064-310100-
   West Central Minnesota

CITY           SKY/WX    TMP DP  RH WIND       PRES   REMARKS
FERGUS FALLS   SUNNY     77  68  73 S12       29.78F
WHEATON        SUNNY     75  68  78 SE13      29.79S
MORRIS         SUNNY     79  70  73 SE13      29.81F
ALEXANDRIA     SUNNY     78  68  71 S10       29.86F
ELBOW LAKE     FAIR      76  69  78 S15       29.81F
WADENA         SUNNY     77  66  69 S9        29.83F
GLENWOOD       SUNNY     77  68  73 S8        29.87S
APPLETON       SUNNY     79  66  65 S10       29.82S
BENSON         SUNNY     77  66  69 S8        29.84S
ORTONVILLE     SUNNY     81  66  61 S9G16     29.81F
MADISON        SUNNY     75  64  69 S9G16     29.83S
WILLMAR        FAIR      77  66  69 S8        29.88F
$$
MNZ033>034-036-042>043-049>051-058-059-310100-
   Central Minnesota

CITY           SKY/WX    TMP DP  RH WIND       PRES   REMARKS
ST CLOUD       CLEAR     76  66  71 S8        29.88F
6HR MIN TEMP:  73; 6HR MAX TEMP:  80;

SAUK CENTRE    FAIR      76  68  77 SE6       29.87F
PAYNESVILLE    CLEAR     77  66  70 E7        29.88F
AITKIN         CLEAR     75  66  73 S7        29.86S
PINE RIVER     CLEAR     75  68  78 S8        29.88S
BRAINERD       CLEAR     75  67  76 S10       29.86F
STAPLES        CLEAR     75  66  73 S9        29.85S
LONG PRAIRIE   FAIR      73  68  83 SE9       29.87F
LITTLE FALLS   CLEAR     75  64  69 S7        29.87F
LITCHFIELD     CLEAR     79  70  73 SE6       29.90S
BUFFALO        CLEAR     76  65  69 S7        29.91S
MAPLE LAKE     CLEAR     76  68  77 S6        29.90F
$$
MNZ037-044-045-052-053-310100-
   East Central Minnesota

CITY           SKY/WX    TMP DP  RH WIND       PRES   REMARKS
PRINCETON      CLEAR     77  66  69 S6        29.89F
MORA           CLEAR     73  63  68 S6        29.90F
CAMBRIDGE      CLEAR     79  64  61 CALM      29.88S HAZE
RUSH CITY      CLEAR     75  66  74 S7        29.90S
MOOSE LAKE     CLEAR     73  64  73 S5        29.86F
HINCKLEY       FAIR      75  66  73 S6        29.89F
CLOQUET        CLEAR     75  63  64 S8        29.88S
MCGREGOR       PTCLDY    77  66  69 S8        29.87F
$$
MNZ071>073-080-081-089-090-097-098-310100-
   Southwest Minnesota

CITY           SKY/WX    TMP DP  RH WIND       PRES   REMARKS
MONTEVIDEO     SUNNY     79  66  65 S10G16    29.87S
GRANITE FALLS  SUNNY     76  67  74 S9        29.88S
CANBY          SUNNY     76  65  66 S9        29.85F
MARSHALL       SUNNY     75  61  60 S12       29.89S
REDWOOD FALLS  CLEAR     76  67  73 S10       29.88F
OLIVIA         CLEAR     73  64  73 S8        29.88S
PIPESTONE      MOSUNNY   72  64  78 S8        29.91F
WINDOM         CLEAR     75  64  69 S10G16    29.93S
WORTHINGTON    SUNNY     72  63  73 S9        29.93F
JACKSON        CLEAR     73  68  83 S12       29.95S
TRACY          SUNNY     75  67  76 S12       29.89S
SLAYTON        SUNNY     72  67  82 CALM      29.92F
$$
MNZ065>067-074>077-082>085-091>093-310100-
   South Central Minnesota

CITY           SKY/WX    TMP DP  RH WIND       PRES   REMARKS
MANKATO        CLEAR     73  66  78 S8        29.93F
NEW ULM        CLEAR     75  66  73 S12       29.91S
ST JAMES       CLEAR     73  68  83 S10       29.93F
FAIRMONT       CLEAR     72  63  73 S10G17    29.94F
GLENCOE        CLEAR     77  70  78 S6        29.91S
FARIBAULT      CLEAR     73  66  78 S9        29.95S
OWATONNA       CLEAR     73  64  73 S7        29.96S
WASECA         CLEAR     72  64  78 S7        29.96F
ALBERT LEA     CLEAR     72  66  83 S7        29.97F
$$
MNZ078>079-086>088-094>096-310100-
   Southeast Minnesota

CITY           SKY/WX    TMP DP  RH WIND       PRES   REMARKS
ROCHESTER      CLEAR     69  64  84 S13       29.99F
6HR MIN TEMP:  68; 6HR MAX TEMP:  73;

RED WING       CLEAR     75  64  69 S5        29.93F
STANTON        CLEAR     75  66  73 S8        29.93S
DODGE CENTER   CLEAR     70  64  83 S10       29.98F
WINONA         CLEAR     73  64  73 S3        29.98S
PRESTON        MOCLDY    68  62  81 S8        30.01S
$$
ABBREVIATIONS USED IN REMARKS
   TC - TEMPERATURES IN CELSIUS
  WCI - WIND CHILL INDEX
   HX - HEAT INDEX
  VSB - VISIBILITY
$$


USA.gov is the U.S. government's official web portal to all federal, state and local government web resources and services.